Location: Artiguedieu
(43.5000°N, 0.5454°E)
Time: 18:57:44
(UTC+00:00)

Transit 2A - Pass Details

Date: 24 July 2021
Orbit: 594 x 964 km, 66.7° (Epoch: 28 September)

Event Time Altitude Azimuth Distance (km) Brightness Sun altitude
Rises 15:01:59 0° 338° (NNW) 3,148 9.2 46.1°
Reaches altitude 10° 15:05:00 10° 357° (N) 2,296 8.5 45.5°
Maximum altitude 15:08:38 18° 41° (NE) 1,860 7.8 44.9°
Drops below altitude 10° 15:12:30 10° 84° (E) 2,464 8.3 44.2°
Sets 15:15:52 0° 102° (ESE) 3,468 9.0 43.7°
